Location: Az?znagar
(16.8373°N, 80.5091°E)
Time: 11:15:25
(UTC+00:00)

CZ-2C R/B - Pass Details

Date: 04 December 2021
Orbit: 784 x 870 km, 98.2° (Epoch: 27 January)

Event Time Altitude Azimuth Distance (km) Brightness Sun altitude
Rises 00:09:52 0° 169° (SSE) 3,439 6.3 -10.4°
Reaches altitude 10° 00:12:16 10° 169° (S) 2,498 5.6 -9.8°
Maximum altitude 00:17:50 85° 257° (WSW) 862 2.7 -8.6°
Drops below altitude 10° 00:23:19 10° 347° (NNW) 2,459 4.8 -7.4°
Sets 00:25:40 0° 347° (NNW) 3,382 5.5 -6.8°
